TimeEST,TemperatureF,Dew PointF,Humidity,Sea Level PressureIn,VisibilityMPH,Wind Direction,Wind SpeedMPH,Gust SpeedMPH,PrecipitationIn,Events,Conditions,WindDirDegrees,DateUTC
12:10 AM,26.6,21.2,80,29.92,3.0,Calm,Calm,-,0.00,Snow,Light Snow,0,2013-02-03 05:10:00
12:37 AM,26.6,21.2,80,29.91,9.0,West,6.9,-,0.00,,Overcast,260,2013-02-03 05:37:00
12:51 AM,26.1,21.9,84,29.99,7.0,Variable,3.5,-,0.00,Snow,Light Snow,0,2013-02-03 05:51:00
1:12 AM,26.6,21.2,80,29.90,2.0,Calm,Calm,-,0.01,Snow,Light Snow,0,2013-02-03 06:12:00
1:32 AM,26.6,21.2,80,29.89,2.5,WNW,6.9,-,0.01,Snow,Light Snow,300,2013-02-03 06:32:00
1:44 AM,26.6,21.2,80,29.89,3.0,WNW,3.5,-,0.01,Snow,Light Snow,290,2013-02-03 06:44:00
1:51 AM,26.1,21.0,81,29.97,3.0,Variable,3.5,-,0.01,Snow,Light Snow,0,2013-02-03 06:51:00
2:25 AM,26.6,19.4,74,29.88,8.0,NW,3.5,-,0.00,Snow,Light Snow,320,2013-02-03 07:25:00
2:51 AM,26.1,21.0,81,29.96,9.0,Calm,Calm,-,0.00,Snow,Light Snow,0,2013-02-03 07:51:00
3:41 AM,24.8,21.2,86,29.86,5.0,WNW,3.5,-,0.00,Snow,Light Snow,290,2013-02-03 08:41:00
3:51 AM,25.0,21.0,85,29.94,4.0,WNW,3.5,-,0.01,Snow,Light Snow,290,2013-02-03 08:51:00
4:03 AM,24.8,21.2,86,29.85,4.0,Variable,4.6,-,0.00,Snow,Light Snow,0,2013-02-03 09:03:00
4:35 AM,24.8,21.2,86,29.84,4.0,Calm,Calm,-,N/A,Snow,Light Snow,0,2013-02-03 09:35:00
4:51 AM,24.8,21.2,86,29.84,4.0,WSW,3.5,-,N/A,Snow,Light Snow,250,2013-02-03 09:51:00
5:51 AM,25.0,19.0,78,29.92,5.0,Variable,4.6,-,0.01,Snow,Light Snow,0,2013-02-03 10:51:00
6:51 AM,25.0,18.0,75,29.92,6.0,WSW,10.4,-,0.00,Snow,Light Snow,250,2013-02-03 11:51:00
7:51 AM,23.0,17.6,80,29.86,3.0,West,5.8,-,N/A,Snow,Light Snow,270,2013-02-03 12:51:00
7:58 AM,23.0,17.6,80,29.86,2.0,Calm,Calm,-,0.00,Snow,Light Snow,0,2013-02-03 12:58:00
8:10 AM,23.0,15.8,74,29.86,6.0,WSW,6.9,-,0.00,Snow,Light Snow,240,2013-02-03 13:10:00
8:51 AM,23.0,15.1,72,29.94,4.0,SSW,3.5,-,0.00,Snow,Light Snow,210,2013-02-03 13:51:00
8:57 AM,23.0,15.8,74,29.85,2.5,Calm,Calm,-,0.00,Snow,Light Snow,0,2013-02-03 13:57:00
9:09 AM,23.0,17.6,80,29.85,1.8,Calm,Calm,-,0.00,Snow,Light Snow,0,2013-02-03 14:09:00
9:20 AM,23.0,17.6,80,29.85,2.5,Calm,Calm,-,0.00,Snow,Light Snow,0,2013-02-03 14:20:00
9:29 AM,23.0,17.6,80,29.85,1.2,Calm,Calm,-,0.00,Snow,Light Snow,0,2013-02-03 14:29:00
9:51 AM,23.0,18.0,81,29.93,1.2,SSE,4.6,-,0.00,Snow,Light Snow,150,2013-02-03 14:51:00
10:51 AM,24.1,19.0,81,29.90,1.2,South,5.8,-,0.01,Snow,Light Snow,170,2013-02-03 15:51:00
11:51 AM,24.1,19.9,84,29.88,2.0,South,5.8,-,0.00,Snow,Light Snow,190,2013-02-03 16:51:00
12:02 PM,24.8,19.4,80,29.79,3.0,SSW,3.5,-,0.00,Snow,Light Snow,200,2013-02-03 17:02:00
12:17 PM,24.8,19.4,80,29.79,2.0,Calm,Calm,-,0.00,Snow,Light Snow,0,2013-02-03 17:17:00
12:24 PM,26.6,19.4,74,29.79,1.5,Variable,5.8,-,0.00,Snow,Light Snow,0,2013-02-03 17:24:00
12:51 PM,26.1,19.0,75,29.86,1.8,West,9.2,16.1,0.01,Snow,Light Snow,260,2013-02-03 17:51:00
1:43 PM,26.6,19.4,74,29.77,2.0,West,8.1,19.6,0.00,Snow,Light Snow,270,2013-02-03 18:43:00
1:51 PM,26.1,19.0,75,29.86,1.2,West,8.1,-,0.00,Snow,Light Snow,260,2013-02-03 18:51:00
2:02 PM,26.6,19.4,74,29.78,0.8,West,6.9,-,0.00,Snow,Light Snow,270,2013-02-03 19:02:00
2:16 PM,26.6,21.2,80,29.78,0.8,WSW,5.8,-,0.00,Snow,Light Snow,250,2013-02-03 19:16:00
2:46 PM,26.6,19.4,74,29.78,1.2,West,10.4,16.1,0.01,Snow,Light Snow,270,2013-02-03 19:46:00
2:51 PM,26.1,19.0,75,29.87,1.2,West,9.2,17.3,0.01,Snow,Light Snow,260,2013-02-03 19:51:00
3:51 PM,26.1,18.0,71,29.88,1.2,West,12.7,20.7,0.00,Snow,Light Snow,260,2013-02-03 20:51:00
4:14 PM,24.8,17.6,74,29.81,0.8,WSW,12.7,25.3,0.00,Snow,Light Snow,250,2013-02-03 21:14:00
4:21 PM,24.8,17.6,74,29.81,1.0,West,18.4,23.0,0.00,Snow,Light Snow,260,2013-02-03 21:21:00
4:51 PM,25.0,17.1,72,29.91,1.5,West,11.5,-,0.00,Snow,Light Snow,260,2013-02-03 21:51:00
5:31 PM,24.8,17.6,74,29.85,0.8,WSW,16.1,27.6,0.00,Snow,Light Snow,250,2013-02-03 22:31:00
5:51 PM,24.1,16.0,71,29.95,1.0,West,15.0,28.8,0.00,Snow,Light Snow,260,2013-02-03 22:51:00
6:08 PM,23.0,15.8,74,29.86,3.0,West,11.5,25.3,0.00,Snow,Light Snow,260,2013-02-03 23:08:00
6:31 PM,23.0,15.8,74,29.88,2.5,West,16.1,25.3,0.00,Snow,Light Snow,270,2013-02-03 23:31:00
6:51 PM,23.0,15.1,72,29.99,2.0,West,12.7,21.9,0.00,Snow,Light Snow,280,2013-02-03 23:51:00
7:16 PM,21.2,15.8,80,29.91,4.0,West,8.1,16.1,0.00,Snow,Light Snow,270,2013-02-04 00:16:00
7:39 PM,21.2,15.8,80,29.93,2.5,WNW,9.2,-,0.00,Snow,Light Snow,300,2013-02-04 00:39:00
7:51 PM,21.9,15.1,75,30.03,1.2,West,11.5,24.2,0.00,Snow,Light Snow,280,2013-02-04 00:51:00
8:19 PM,21.2,14.0,74,29.94,2.5,West,16.1,26.5,0.00,Snow,Light Snow,280,2013-02-04 01:19:00
8:41 PM,21.2,14.0,74,29.95,4.0,West,12.7,23.0,0.00,Snow,Light Snow,270,2013-02-04 01:41:00
8:51 PM,21.0,12.9,71,30.06,4.0,West,13.8,23.0,0.00,Snow,Light Snow,280,2013-02-04 01:51:00
9:21 PM,21.2,12.2,68,29.97,2.5,WNW,13.8,26.5,0.00,Snow,Light Snow,290,2013-02-04 02:21:00
9:46 PM,19.4,12.2,74,29.98,3.0,West,10.4,20.7,0.00,Snow,Light Snow,280,2013-02-04 02:46:00
9:51 PM,19.9,12.0,71,30.08,3.0,WNW,11.5,21.9,0.00,Snow,Light Snow,290,2013-02-04 02:51:00
10:08 PM,19.4,12.2,74,29.98,2.0,WNW,12.7,21.9,0.00,Snow,Light Snow,290,2013-02-04 03:08:00
10:20 PM,19.4,12.2,74,29.98,1.5,WNW,10.4,17.3,0.00,Snow,Light Snow,290,2013-02-04 03:20:00
10:39 PM,19.4,12.2,74,29.98,2.0,Variable,4.6,-,N/A,Snow,Light Snow,0,2013-02-04 03:39:00
10:51 PM,19.9,12.9,74,30.09,2.5,West,5.8,-,0.00,Snow,Light Snow,260,2013-02-04 03:51:00
11:22 PM,19.4,12.2,74,29.99,1.8,WSW,10.4,19.6,0.00,Snow,Light Snow,250,2013-02-04 04:22:00
11:28 PM,19.4,12.2,74,30.00,3.0,West,8.1,-,0.00,Snow,Light Snow,280,2013-02-04 04:28:00
11:51 PM,19.9,12.0,71,30.10,2.0,West,8.1,20.7,0.00,Snow,Light Snow,280,2013-02-04 04:51:00
11:59 PM,19.4,12.2,74,30.00,1.5,WNW,6.9,-,0.00,Snow,Light Snow,290,2013-02-04 04:59:00